CYVVCYQT

Guest
Details From CYVV - Wiarton
To CYQT - Thunder Bay
Flight Number -
Tags Generated
Created
Modified
Stats Distance 403 nm / 747 km
Max Altitude 0 ft / 0 m
Waypoints 3
Social Downloads 2
Likes 0
Share VATSIM

Download

Looking for another format? Having issues loading an existing format? Contact us
Advertisement - Login to hide

Notes

Generated

Route

CYVV YQT24 CYQT

ID Type Via Altitude Latitude Longitude Leg Dist Tot Dist Heading (true) Name
O CYVV APT - 0 ft / 0 m 44.74278˚ -81.11166˚ - 0 nm - WIARTON
YQT24 FIX - 0 ft / 0 m 48.16926˚ -88.85266˚ 380 nm 380 nm 305° / 300° -
O CYQT APT - 0 ft / 0 m 48.37485˚ -89.33798˚ 22 nm 403 nm 303° / 302° -

Altitude Profile

Advertisement - Login to hide

Weather


0- 5 10 15 20 25 30 35+ Temperature / ° C

Clouds and Precipitation
Forecast for 2017-12-16 18:00 UTC. Updated an hour ago

Ground ~20,000 ft ~40,000 ft Winds

CYVV

Details ICAO CYVV (YVV)
Name WIARTON
Region Canada
Timezone America/Toronto (UTC-5.0)
Stats Elevation 729 ft / 222 m (AMSL)
Location 44.743125° -81.108194°
Runways 2
Magnetic Variation 9.548° W

METAR

CYVV 161800Z 33006KT 280V040 15SM FEW015 SCT250 M09/M14 A3002 RMK SC2CS1 SLP180

Decode

TAF

TAF CYVV 161338Z 1614/1624 32005KT P6SM FEW020 SCT040 TEMPO 1614/1616 4SM -SHSN OVC020 FM161600 33008KT P6SM SCT170 RMK NXT FCST BY 162000Z

Decode

Departure Runways

ID Width Length Bearing (true) Bearing (mag) Surface Threshold Offset Overrun Length
05 150 ft / 46 m 5,026 ft / 1,532 m 43.44° 52.99° Asphalt 0 ft / 0 m 0 ft / 0 m
11 100 ft / 30 m 3,066 ft / 935 m 99.51° 109.06° Gravel 0 ft / 0 m 0 ft / 0 m
23 150 ft / 46 m 5,026 ft / 1,532 m 223.45° 233.00° Asphalt 0 ft / 0 m 0 ft / 0 m
29 100 ft / 30 m 3,066 ft / 935 m 279.52° 289.07° Gravel 0 ft / 0 m 0 ft / 0 m

CYQT

Details ICAO CYQT (YQT)
Name Thunder Bay
Region Canada
Timezone America/Thunder_Bay (UTC-5.0)
Stats Elevation 653 ft / 199 m (AMSL)
Location 48.372036° -89.325122°
Runways 2
Magnetic Variation 3.734° W

METAR

CYQT 161800Z 20004KT 15SM SCT012 OVC016 M16/M20 A3011 RMK SC3SC5 SLP220

Decode

TAF

TAF CYQT 161338Z 1614/1702 VRB03KT P6SM FEW015 TEMPO 1614/1615 BKN015 FM161500 06010KT P6SM SCT008 OVC025 TEMPO 1615/1702 4SM -SN BKN008 OVC025 RMK NXT FCST BY 162000Z

Decode

Destination Runways

ID Width Length Bearing (true) Bearing (mag) Surface Threshold Offset Overrun Length
07 200 ft / 61 m 6,206 ft / 1,892 m 70.47° 74.20° Asphalt 0 ft / 0 m 0 ft / 0 m
12 200 ft / 61 m 5,305 ft / 1,617 m 121.57° 125.30° Asphalt 0 ft / 0 m 0 ft / 0 m
25 200 ft / 61 m 6,206 ft / 1,892 m 250.49° 254.22° Asphalt 0 ft / 0 m 0 ft / 0 m
30 200 ft / 61 m 5,305 ft / 1,617 m 301.58° 305.31° Asphalt 0 ft / 0 m 0 ft / 0 m

Approach Navaids

Runway Type Ident Frequency Range Bearing (true) Bearing (mag) Slope Elevation
07 Localiser IQT 109.50 MHz 18 nm / 33 km 70.53° 74.26° - 653 ft / 199 m (AMSL)
07 Glidescope IQT 109.50 MHz 10 nm / 19 km 74.00° 77.73° 3.00° 653 ft / 199 m (AMSL)

Popular Alternatives